Home   Weather   Kerpen   Past weeks

Flag for Germany Past Weather in Kerpen, North Rhine-Westphalia, Germany — Yesterday and Last 2 Weeks

46 °F


Feels Like: 42 °F
Forecast: 45 / 51 °F
Wind: 9 mph from West

Location: Noervenich

Current Time: Oct 22, 2016 at 12:05:38 AM

Latest Report: Oct 21, 2016 at 11:20 PM

Visibility: 5 mi

Pressure: 29.95 "Hg

Humidity: 87%

Dew Point: 43 °F

Location of KerpenLocation

Past Weather in Kerpen — Graph


Kerpen Temperature Yesterday

Maximum temperature yesterday: 46 °F (at 3:20 PM)
Minimum temperature yesterday: 45 °F (at 12:20 AM)
Average temperature yesterday: 45 °F

High & Low Weather Summary for the Past Weeks

High68 °F (Oct 16, 3:20 PM)100% (Oct 11, 6:20 AM)30.27 "Hg (Oct 11, 6:20 AM)
Low37 °F (Oct 11, 5:20 AM)48% (Oct 8, 3:20 PM)29.65 "Hg (Oct 15, 2:20 AM)
Average49 °F83%30.06 "Hg
* Reported Oct 6 10:20 PM — Oct 21 10:20 PM, Kerpen, Weather by CustomWeather, © 2016

Note: Actual official high and low records may vary slightly from our data, if they occured in-between our weather recording intervals... More about our weather records


Kerpen Weather History for the Previous 24 Hours

Scroll right to see more
Time TempWeatherWind HumidityBarometerVisibility
10:20 PM
Fri, Oct 21
45 °FQuite cool.8 mph93%29.95 "Hg3 mi
9:20 PM45 °FRain. Passing clouds.9 mph87%29.95 "Hg6 mi
8:20 PM45 °FLight rain. Passing clouds.9 mph87%29.98 "HgN/A
7:20 PM45 °FPartly cloudy.7 mph87%29.98 "HgN/A
6:20 PM45 °FBroken clouds.8 mph87%29.98 "HgN/A
5:20 PM45 °FMostly cloudy.7 mph87%29.98 "HgN/A
4:20 PM45 °FBroken clouds.8 mph81%30.01 "HgN/A
3:20 PM46 °FBroken clouds.7 mph76%30.01 "HgN/A
2:20 PM45 °FPartly sunny.6 mph87%30.01 "Hg6 mi
1:46 PM45 °FPartly sunny.6 mph87%30.01 "Hg5 mi
1:20 PM45 °FBroken clouds.6 mph81%30.01 "Hg5 mi
12:20 PM45 °FBroken clouds.7 mph87%30.01 "Hg4 mi
11:20 AM45 °FFog.8 mph87%30.01 "Hg3 mi
10:20 AM45 °FFog.7 mph93%30.01 "Hg2 mi
9:20 AM45 °FFog.5 mph93%30.01 "Hg2 mi
8:20 AM45 °FLight rain. Fog.3 mph100%29.98 "Hg2 mi
7:20 AM45 °FDrizzle. Fog.5 mph100%29.98 "Hg2 mi
6:20 AM45 °FDrizzle. Fog.5 mph100%29.95 "Hg2 mi
5:20 AM45 °FDrizzle. Fog.2 mph93%29.95 "Hg1 mi
4:20 AM45 °FDrizzle. Fog.5 mph93%29.95 "Hg2 mi
3:56 AM45 °FFog.7 mph93%29.98 "Hg2 mi
3:20 AM45 °FFog.6 mph93%29.95 "Hg1 mi
2:20 AM45 °FFog.7 mph93%29.98 "Hg1 mi
1:20 AM45 °FFog.5 mph93%29.98 "Hg1 mi
12:20 AM45 °FFog.5 mph93%29.98 "Hg2 mi
Weather by CustomWeather, © 2016

See weather overviewHow to use our weather pages